Year,Month,Day,Hour,Minute,Value (Times are PST for windspeed in km/hr)
2014,11,08,00,00,1.10
2014,11,08,00,01,0.70
2014,11,08,00,02,0.00
2014,11,08,00,03,0.00
2014,11,08,00,04,0.40
2014,11,08,00,05,2.00
2014,11,08,00,06,2.00
2014,11,08,00,07,2.40
2014,11,08,00,08,1.10
2014,11,08,00,09,0.40
2014,11,08,00,10,0.00
2014,11,08,00,11,0.30
2014,11,08,00,12,1.20
2014,11,08,00,13,0.50
2014,11,08,00,14,0.10
2014,11,08,00,15,0.00
2014,11,08,00,16,0.00
2014,11,08,00,17,0.00
2014,11,08,00,18,0.40
2014,11,08,00,19,1.40
2014,11,08,00,20,2.00
2014,11,08,00,21,1.70
2014,11,08,00,22,1.90
2014,11,08,00,23,3.30
2014,11,08,00,24,3.20
2014,11,08,00,25,2.00
2014,11,08,00,26,1.40
2014,11,08,00,27,1.60
2014,11,08,00,28,1.30
2014,11,08,00,29,1.10
2014,11,08,00,30,1.40
2014,11,08,00,31,1.40
2014,11,08,00,32,1.00
2014,11,08,00,33,1.30
2014,11,08,00,34,2.10
2014,11,08,00,35,1.40
2014,11,08,00,36,0.60
2014,11,08,00,37,0.80
2014,11,08,00,38,0.50
2014,11,08,00,39,0.20
2014,11,08,00,40,0.90
2014,11,08,00,41,0.40
2014,11,08,00,42,0.20
2014,11,08,00,43,0.10
2014,11,08,00,44,0.00
2014,11,08,00,45,0.10
2014,11,08,00,46,0.10
2014,11,08,00,47,0.00
2014,11,08,00,48,0.00
2014,11,08,00,49,0.00
2014,11,08,00,50,0.00
2014,11,08,00,51,0.20
2014,11,08,00,52,0.40
2014,11,08,00,53,0.20
2014,11,08,00,54,0.50
2014,11,08,00,55,1.20
2014,11,08,00,56,0.80
2014,11,08,00,57,0.40
2014,11,08,00,58,0.10
2014,11,08,00,59,0.00
2014,11,08,01,00,0.00
2014,11,08,01,01,0.00
2014,11,08,01,02,0.00
2014,11,08,01,03,0.00
2014,11,08,01,04,0.10
2014,11,08,01,05,1.00
2014,11,08,01,06,0.90
2014,11,08,01,07,0.40
2014,11,08,01,08,0.00
2014,11,08,01,09,0.00
2014,11,08,01,10,0.50
2014,11,08,01,11,1.30
2014,11,08,01,12,0.40
2014,11,08,01,13,1.30
2014,11,08,01,14,1.40
2014,11,08,01,15,1.30
2014,11,08,01,16,0.40
2014,11,08,01,17,0.00
2014,11,08,01,18,0.50
2014,11,08,01,19,0.10
2014,11,08,01,20,0.00
2014,11,08,01,21,0.00
2014,11,08,01,22,0.00
2014,11,08,01,23,0.00
2014,11,08,01,24,0.00
2014,11,08,01,25,0.70
2014,11,08,01,26,1.60
2014,11,08,01,27,1.40
2014,11,08,01,28,1.90
2014,11,08,01,29,1.90
2014,11,08,01,30,2.50
2014,11,08,01,31,2.40
2014,11,08,01,32,0.90
2014,11,08,01,33,0.10
2014,11,08,01,34,0.20
2014,11,08,01,35,0.20
2014,11,08,01,36,0.40
2014,11,08,01,37,1.00
2014,11,08,01,38,0.10
2014,11,08,01,39,0.60
2014,11,08,01,40,0.40
2014,11,08,01,41,0.00
2014,11,08,01,42,0.10
2014,11,08,01,43,0.50
2014,11,08,01,44,0.00
2014,11,08,01,45,0.40
2014,11,08,01,46,0.80
2014,11,08,01,47,1.30
2014,11,08,01,48,0.30
2014,11,08,01,49,0.10
2014,11,08,01,50,0.40
2014,11,08,01,51,0.10
2014,11,08,01,52,1.10
2014,11,08,01,53,2.10
2014,11,08,01,54,1.40
2014,11,08,01,55,0.60
2014,11,08,01,56,0.70
2014,11,08,01,57,1.40
2014,11,08,01,58,1.30
2014,11,08,01,59,0.80
2014,11,08,02,00,0.10
2014,11,08,02,01,1.10
2014,11,08,02,02,0.50
2014,11,08,02,03,0.50
2014,11,08,02,04,0.00
2014,11,08,02,05,0.40
2014,11,08,02,06,1.40
2014,11,08,02,07,2.60
2014,11,08,02,08,2.60
2014,11,08,02,09,2.60
2014,11,08,02,10,1.70
2014,11,08,02,11,0.70
2014,11,08,02,12,1.20
2014,11,08,02,13,1.00
2014,11,08,02,14,1.30
2014,11,08,02,15,0.10
2014,11,08,02,16,0.70
2014,11,08,02,17,1.30
2014,11,08,02,18,2.40
2014,11,08,02,19,1.10
2014,11,08,02,20,0.80
2014,11,08,02,21,1.40
2014,11,08,02,22,1.30
2014,11,08,02,23,2.10
2014,11,08,02,24,1.40
2014,11,08,02,25,2.30
2014,11,08,02,26,1.50
2014,11,08,02,27,2.50
2014,11,08,02,28,2.00
2014,11,08,02,29,2.60
2014,11,08,02,30,2.30
2014,11,08,02,31,1.10
2014,11,08,02,32,1.80
2014,11,08,02,33,2.00
2014,11,08,02,34,1.80
2014,11,08,02,35,1.00
2014,11,08,02,36,0.30
2014,11,08,02,37,1.30
2014,11,08,02,38,1.40
2014,11,08,02,39,1.10
2014,11,08,02,40,1.50
2014,11,08,02,41,1.20
2014,11,08,02,42,0.90
2014,11,08,02,43,0.80
2014,11,08,02,44,0.20
2014,11,08,02,45,0.00
2014,11,08,02,46,0.60
2014,11,08,02,47,1.10
2014,11,08,02,48,2.00
2014,11,08,02,49,3.00
2014,11,08,02,50,3.60
2014,11,08,02,51,4.30
2014,11,08,02,52,1.10
2014,11,08,02,53,0.40
2014,11,08,02,54,0.50
2014,11,08,02,55,1.10
2014,11,08,02,56,1.60
2014,11,08,02,57,0.10
2014,11,08,02,58,0.00
2014,11,08,02,59,0.20
2014,11,08,03,00,1.30
2014,11,08,03,01,2.90
2014,11,08,03,02,2.00
2014,11,08,03,03,1.80
2014,11,08,03,04,1.30
2014,11,08,03,05,2.10
2014,11,08,03,06,1.30
2014,11,08,03,07,0.10
2014,11,08,03,08,0.10
2014,11,08,03,09,0.50
2014,11,08,03,10,1.30
2014,11,08,03,11,0.30
2014,11,08,03,12,1.80
2014,11,08,03,13,1.60
2014,11,08,03,14,0.70
2014,11,08,03,15,0.00
2014,11,08,03,16,0.00
2014,11,08,03,17,0.30
2014,11,08,03,18,2.00
2014,11,08,03,19,2.70
2014,11,08,03,20,2.90
2014,11,08,03,21,3.00
2014,11,08,03,22,1.90
2014,11,08,03,23,2.30
2014,11,08,03,24,2.40
2014,11,08,03,25,0.70
2014,11,08,03,26,0.70
2014,11,08,03,27,0.20
2014,11,08,03,28,0.00
2014,11,08,03,29,0.00
2014,11,08,03,30,0.00
2014,11,08,03,31,0.00
2014,11,08,03,32,0.00
2014,11,08,03,33,0.20
2014,11,08,03,34,1.10
2014,11,08,03,35,2.50
2014,11,08,03,36,3.00
2014,11,08,03,37,4.00
2014,11,08,03,38,3.30
2014,11,08,03,39,1.60
2014,11,08,03,40,1.70
2014,11,08,03,41,2.20
2014,11,08,03,42,3.10
2014,11,08,03,43,2.10
2014,11,08,03,44,1.70
2014,11,08,03,45,1.60
2014,11,08,03,46,0.70
2014,11,08,03,47,0.20
2014,11,08,03,48,0.30
2014,11,08,03,49,1.40
2014,11,08,03,50,0.80
2014,11,08,03,51,0.90
2014,11,08,03,52,1.40
2014,11,08,03,53,1.30
2014,11,08,03,54,0.90
2014,11,08,03,55,0.70
2014,11,08,03,56,0.70
2014,11,08,03,57,0.10
2014,11,08,03,58,0.40
2014,11,08,03,59,2.20
2014,11,08,04,00,1.40
2014,11,08,04,01,2.30
2014,11,08,04,02,2.70
2014,11,08,04,03,2.50
2014,11,08,04,04,2.90
2014,11,08,04,05,3.40
2014,11,08,04,06,2.90
2014,11,08,04,07,2.80
2014,11,08,04,08,2.00
2014,11,08,04,09,1.90
2014,11,08,04,10,1.90
2014,11,08,04,11,1.10
2014,11,08,04,12,1.60
2014,11,08,04,13,2.30
2014,11,08,04,14,1.00
2014,11,08,04,15,0.70
2014,11,08,04,16,0.40
2014,11,08,04,17,0.00
2014,11,08,04,18,0.10
2014,11,08,04,19,0.90
2014,11,08,04,20,1.00
2014,11,08,04,21,2.40
2014,11,08,04,22,2.60
2014,11,08,04,23,3.60
2014,11,08,04,24,3.40
2014,11,08,04,25,2.90
2014,11,08,04,26,3.30
2014,11,08,04,27,3.50
2014,11,08,04,28,1.70
2014,11,08,04,29,2.20
2014,11,08,04,30,1.70
2014,11,08,04,31,2.80
2014,11,08,04,32,1.70
2014,11,08,04,33,1.10
2014,11,08,04,34,1.30
2014,11,08,04,35,3.30
2014,11,08,04,36,3.50
2014,11,08,04,37,1.20
2014,11,08,04,38,2.80
2014,11,08,04,39,4.50
2014,11,08,04,40,1.90
2014,11,08,04,41,1.10
2014,11,08,04,42,0.70
2014,11,08,04,43,2.40
2014,11,08,04,44,2.50
2014,11,08,04,45,1.90
2014,11,08,04,46,2.70
2014,11,08,04,47,1.30
2014,11,08,04,48,0.60
2014,11,08,04,49,1.30
2014,11,08,04,50,2.60
2014,11,08,04,51,2.70
2014,11,08,04,52,1.70
2014,11,08,04,53,1.70
2014,11,08,04,54,1.60
2014,11,08,04,55,2.60
2014,11,08,04,56,3.10
2014,11,08,04,57,2.90
2014,11,08,04,58,1.40
2014,11,08,04,59,0.50
2014,11,08,05,00,0.80
2014,11,08,05,01,1.90
2014,11,08,05,02,0.80
2014,11,08,05,03,0.40
2014,11,08,05,04,1.50
2014,11,08,05,05,2.30
2014,11,08,05,06,1.00
2014,11,08,05,07,2.30
2014,11,08,05,08,1.20
2014,11,08,05,09,2.80
2014,11,08,05,10,1.90
2014,11,08,05,11,0.70
2014,11,08,05,12,1.10
2014,11,08,05,13,1.10
2014,11,08,05,14,0.50
2014,11,08,05,15,1.00
2014,11,08,05,16,2.90
2014,11,08,05,17,3.30
2014,11,08,05,18,2.10
2014,11,08,05,19,0.60
2014,11,08,05,20,0.20
2014,11,08,05,21,1.60
2014,11,08,05,22,0.80
2014,11,08,05,23,0.10
2014,11,08,05,24,1.20
2014,11,08,05,25,3.30
2014,11,08,05,26,2.50
2014,11,08,05,27,2.10
2014,11,08,05,28,2.30
2014,11,08,05,29,3.10
2014,11,08,05,30,3.10
2014,11,08,05,31,2.60
2014,11,08,05,32,1.70
2014,11,08,05,33,2.10
2014,11,08,05,34,2.10
2014,11,08,05,35,2.20
2014,11,08,05,36,1.60
2014,11,08,05,37,0.90
2014,11,08,05,38,0.20
2014,11,08,05,39,0.20
2014,11,08,05,40,0.70
2014,11,08,05,41,1.40
2014,11,08,05,42,1.60
2014,11,08,05,43,2.40
2014,11,08,05,44,1.80
2014,11,08,05,45,0.50
2014,11,08,05,46,2.00
2014,11,08,05,47,3.80
2014,11,08,05,48,2.70
2014,11,08,05,49,1.40
2014,11,08,05,50,1.30
2014,11,08,05,51,0.00
2014,11,08,05,52,0.00
2014,11,08,05,53,0.00
2014,11,08,05,54,0.00
2014,11,08,05,55,0.00
2014,11,08,05,56,0.50
2014,11,08,05,57,0.10
2014,11,08,05,58,0.00
2014,11,08,05,59,0.00
2014,11,08,06,00,1.20
2014,11,08,06,01,0.30
2014,11,08,06,02,0.10
2014,11,08,06,03,0.00
2014,11,08,06,04,0.50
2014,11,08,06,05,1.90
2014,11,08,06,06,2.90
2014,11,08,06,07,2.40
2014,11,08,06,08,3.10
2014,11,08,06,09,3.60
2014,11,08,06,10,3.00
2014,11,08,06,11,4.20
2014,11,08,06,12,3.30
2014,11,08,06,13,2.20
2014,11,08,06,14,3.10
2014,11,08,06,15,2.00
2014,11,08,06,16,2.90
2014,11,08,06,17,4.60
2014,11,08,06,18,5.10
2014,11,08,06,19,4.90
2014,11,08,06,20,4.20
2014,11,08,06,21,3.00
2014,11,08,06,22,1.40
2014,11,08,06,23,1.70
2014,11,08,06,24,2.60
2014,11,08,06,25,1.80
2014,11,08,06,26,1.60
2014,11,08,06,27,2.90
2014,11,08,06,28,3.00
2014,11,08,06,29,3.30
2014,11,08,06,30,3.00
2014,11,08,06,31,2.60
2014,11,08,06,32,3.30
2014,11,08,06,33,3.00
2014,11,08,06,34,2.00
2014,11,08,06,35,2.60
2014,11,08,06,36,3.00
2014,11,08,06,37,3.60
2014,11,08,06,38,2.90
2014,11,08,06,39,2.70
2014,11,08,06,40,1.60
2014,11,08,06,41,0.20
2014,11,08,06,42,0.10
2014,11,08,06,43,1.20
2014,11,08,06,44,1.00
2014,11,08,06,45,1.80
2014,11,08,06,46,1.30
2014,11,08,06,47,1.40
2014,11,08,06,48,0.80
2014,11,08,06,49,0.60
2014,11,08,06,50,2.10
2014,11,08,06,51,3.30
2014,11,08,06,52,2.90
2014,11,08,06,53,2.00
2014,11,08,06,54,1.30
2014,11,08,06,55,0.20
2014,11,08,06,56,0.50
2014,11,08,06,57,0.20
2014,11,08,06,58,0.20
2014,11,08,06,59,1.00
2014,11,08,07,00,1.10
2014,11,08,07,01,0.50
2014,11,08,07,02,0.70
2014,11,08,07,03,1.70
2014,11,08,07,04,2.50
2014,11,08,07,05,2.50
2014,11,08,07,06,1.60
2014,11,08,07,07,1.00
2014,11,08,07,08,1.60
2014,11,08,07,09,1.60
2014,11,08,07,10,0.20
2014,11,08,07,11,0.00
2014,11,08,07,12,0.10
2014,11,08,07,13,0.20
2014,11,08,07,14,0.10
2014,11,08,07,15,0.10
2014,11,08,07,16,0.60
2014,11,08,07,17,1.80
2014,11,08,07,18,2.00
2014,11,08,07,19,1.60
2014,11,08,07,20,1.10
2014,11,08,07,21,0.90
2014,11,08,07,22,1.10
2014,11,08,07,23,2.20
2014,11,08,07,24,1.30
2014,11,08,07,25,1.40
2014,11,08,07,26,0.80
2014,11,08,07,27,1.00
2014,11,08,07,28,1.00
2014,11,08,07,29,0.70
2014,11,08,07,30,1.20
2014,11,08,07,31,2.30
2014,11,08,07,32,2.40
2014,11,08,07,33,2.70
2014,11,08,07,34,2.30
2014,11,08,07,35,1.40
2014,11,08,07,36,0.50
2014,11,08,07,37,1.10
2014,11,08,07,38,1.10
2014,11,08,07,39,0.90
2014,11,08,07,40,0.50
2014,11,08,07,41,0.90
2014,11,08,07,42,1.90
2014,11,08,07,43,1.60
2014,11,08,07,44,1.40
2014,11,08,07,45,0.80
2014,11,08,07,46,2.30
2014,11,08,07,47,3.10
2014,11,08,07,48,2.30
2014,11,08,07,49,2.30
2014,11,08,07,50,2.40
2014,11,08,07,51,1.60
2014,11,08,07,52,1.80
2014,11,08,07,53,1.80
2014,11,08,07,54,1.50
2014,11,08,07,55,1.30
2014,11,08,07,56,0.80
2014,11,08,07,57,1.20
2014,11,08,07,58,1.90
2014,11,08,07,59,1.00
2014,11,08,08,00,0.40
2014,11,08,08,01,0.00
2014,11,08,08,02,0.00
2014,11,08,08,03,0.10
2014,11,08,08,04,0.00
2014,11,08,08,05,0.00
2014,11,08,08,06,0.00
2014,11,08,08,07,0.10
2014,11,08,08,08,0.60
2014,11,08,08,09,0.20
2014,11,08,08,10,0.20
2014,11,08,08,11,1.90
2014,11,08,08,12,1.90
2014,11,08,08,13,1.20
2014,11,08,08,14,1.10
2014,11,08,08,15,1.30
2014,11,08,08,16,1.10
2014,11,08,08,17,0.80
2014,11,08,08,18,0.60
2014,11,08,08,19,0.50
2014,11,08,08,20,0.80
2014,11,08,08,21,1.10
2014,11,08,08,22,1.00
2014,11,08,08,23,0.20
2014,11,08,08,24,0.10
2014,11,08,08,25,0.20
2014,11,08,08,26,0.20
2014,11,08,08,27,0.40
2014,11,08,08,28,0.20
2014,11,08,08,29,0.40
2014,11,08,08,30,1.80
2014,11,08,08,31,1.70
2014,11,08,08,32,1.20
2014,11,08,08,33,0.70
2014,11,08,08,34,1.70
2014,11,08,08,35,1.30
2014,11,08,08,36,1.50
2014,11,08,08,37,0.80
2014,11,08,08,38,4.20
2014,11,08,08,39,4.10
2014,11,08,08,40,2.70
2014,11,08,08,41,1.50
2014,11,08,08,42,0.70
2014,11,08,08,43,0.80
2014,11,08,08,44,2.10
2014,11,08,08,45,1.40
2014,11,08,08,46,0.40
2014,11,08,08,47,0.00
2014,11,08,08,48,0.60
2014,11,08,08,49,0.40
2014,11,08,08,50,0.00
2014,11,08,08,51,1.10
2014,11,08,08,52,1.00
2014,11,08,08,53,2.70
2014,11,08,08,54,3.00
2014,11,08,08,55,2.20
2014,11,08,08,56,1.00
2014,11,08,08,57,1.20
2014,11,08,08,58,1.70
2014,11,08,08,59,2.00
2014,11,08,09,00,1.90
2014,11,08,09,01,1.70
2014,11,08,09,02,0.70
2014,11,08,09,03,1.00
2014,11,08,09,04,1.00
2014,11,08,09,05,0.50
2014,11,08,09,06,0.80
2014,11,08,09,07,0.10
2014,11,08,09,08,1.00
2014,11,08,09,09,3.20
2014,11,08,09,10,3.20
2014,11,08,09,11,3.40
2014,11,08,09,12,5.20
2014,11,08,09,13,5.70
2014,11,08,09,14,2.50
2014,11,08,09,15,1.60
2014,11,08,09,16,2.00
2014,11,08,09,17,1.30
2014,11,08,09,18,4.00
2014,11,08,09,19,3.00
2014,11,08,09,20,2.40
2014,11,08,09,21,2.70
2014,11,08,09,22,2.20
2014,11,08,09,23,1.40
2014,11,08,09,24,2.70
2014,11,08,09,25,3.80
2014,11,08,09,26,6.10
2014,11,08,09,27,5.20
2014,11,08,09,28,2.00
2014,11,08,09,29,1.90
2014,11,08,09,30,2.90
2014,11,08,09,31,2.40
2014,11,08,09,32,1.90
2014,11,08,09,33,1.30
2014,11,08,09,34,1.90
2014,11,08,09,35,3.90
2014,11,08,09,36,3.10
2014,11,08,09,37,2.10
2014,11,08,09,38,6.00
2014,11,08,09,39,5.50
2014,11,08,09,40,2.90
2014,11,08,09,41,0.90
2014,11,08,09,42,1.30
2014,11,08,09,43,1.50
2014,11,08,09,44,3.00
2014,11,08,09,45,3.20
2014,11,08,09,46,1.40
2014,11,08,09,47,3.30
2014,11,08,09,48,3.00
2014,11,08,09,49,3.30
2014,11,08,09,50,4.70
2014,11,08,09,51,4.40
2014,11,08,09,52,3.70
2014,11,08,09,53,1.70
2014,11,08,09,54,3.00
2014,11,08,09,55,1.10
2014,11,08,09,56,1.30
2014,11,08,09,57,3.90
2014,11,08,09,58,4.50
2014,11,08,09,59,6.70
2014,11,08,10,00,6.10
2014,11,08,10,01,4.10
2014,11,08,10,02,9.10
2014,11,08,10,03,9.10
2014,11,08,10,04,4.60
2014,11,08,10,05,3.80
2014,11,08,10,06,3.30
2014,11,08,10,07,4.40
2014,11,08,10,08,3.90
2014,11,08,10,09,7.10
2014,11,08,10,10,4.90
2014,11,08,10,11,4.30
2014,11,08,10,12,4.90
2014,11,08,10,13,5.40
2014,11,08,10,14,2.60
2014,11,08,10,15,3.50
2014,11,08,10,16,3.50
2014,11,08,10,17,5.40
2014,11,08,10,18,6.20
2014,11,08,10,19,4.00
2014,11,08,10,20,1.20
2014,11,08,10,21,2.10
2014,11,08,10,22,4.10
2014,11,08,10,23,1.70
2014,11,08,10,24,1.00
2014,11,08,10,25,2.00
2014,11,08,10,26,2.10
2014,11,08,10,27,4.20
2014,11,08,10,28,4.30
2014,11,08,10,29,2.70
2014,11,08,10,30,3.80
2014,11,08,10,31,5.00
2014,11,08,10,32,2.10
2014,11,08,10,33,3.20
2014,11,08,10,34,1.20
2014,11,08,10,35,6.20
2014,11,08,10,36,7.80
2014,11,08,10,37,5.80
2014,11,08,10,38,5.60
2014,11,08,10,39,6.70
2014,11,08,10,40,5.30
2014,11,08,10,41,5.10
2014,11,08,10,42,5.90
2014,11,08,10,43,7.20
2014,11,08,10,44,2.50
2014,11,08,10,45,1.00
2014,11,08,10,46,1.10
2014,11,08,10,47,1.90
2014,11,08,10,48,4.10
2014,11,08,10,49,3.00
2014,11,08,10,50,3.30
2014,11,08,10,51,4.20
2014,11,08,10,52,6.00
2014,11,08,10,53,4.00
2014,11,08,10,54,4.30
2014,11,08,10,55,4.50
2014,11,08,10,56,4.50
2014,11,08,10,57,4.90
2014,11,08,10,58,5.50
2014,11,08,10,59,4.10
2014,11,08,11,00,5.30
2014,11,08,11,01,8.60
2014,11,08,11,02,4.80
2014,11,08,11,03,8.20
2014,11,08,11,04,4.20
2014,11,08,11,05,3.70
2014,11,08,11,06,4.50
2014,11,08,11,07,6.50
2014,11,08,11,08,8.30
2014,11,08,11,09,5.40
2014,11,08,11,10,7.10
2014,11,08,11,11,10.40
2014,11,08,11,12,8.30
2014,11,08,11,13,10.10
2014,11,08,11,14,6.90
2014,11,08,11,15,5.40
2014,11,08,11,16,5.00
2014,11,08,11,17,7.80
2014,11,08,11,18,10.70
2014,11,08,11,19,6.10
2014,11,08,11,20,10.60
2014,11,08,11,21,10.10
2014,11,08,11,22,8.00
2014,11,08,11,23,8.70
2014,11,08,11,24,6.90
2014,11,08,11,25,5.60
2014,11,08,11,26,5.90
2014,11,08,11,27,6.60
2014,11,08,11,28,10.10
2014,11,08,11,29,8.00
2014,11,08,11,30,4.30
2014,11,08,11,31,6.70
2014,11,08,11,32,6.10
2014,11,08,11,33,1.00
2014,11,08,11,34,1.40
2014,11,08,11,35,4.30
2014,11,08,11,36,6.10
2014,11,08,11,37,7.20
2014,11,08,11,38,8.20
2014,11,08,11,39,8.70
2014,11,08,11,40,9.70
2014,11,08,11,41,10.70
2014,11,08,11,42,7.30
2014,11,08,11,43,7.10
2014,11,08,11,44,9.40
2014,11,08,11,45,9.10
2014,11,08,11,46,10.90
2014,11,08,11,47,7.80
2014,11,08,11,48,8.60
2014,11,08,11,49,9.20
2014,11,08,11,50,13.10
2014,11,08,11,51,12.00
2014,11,08,11,52,8.90
2014,11,08,11,53,6.90
2014,11,08,11,54,9.50
2014,11,08,11,55,9.30
2014,11,08,11,56,9.80
2014,11,08,11,57,9.80
2014,11,08,11,58,13.50
2014,11,08,11,59,9.20
2014,11,08,12,00,8.00
2014,11,08,12,01,11.70
2014,11,08,12,02,6.20
2014,11,08,12,03,8.20
2014,11,08,12,04,7.40
2014,11,08,12,05,8.90
2014,11,08,12,06,10.60
2014,11,08,12,07,8.90
2014,11,08,12,08,14.60
2014,11,08,12,09,8.20
2014,11,08,12,10,9.80
2014,11,08,12,11,13.60
2014,11,08,12,12,12.40
2014,11,08,12,13,6.00
2014,11,08,12,14,11.40
2014,11,08,12,15,9.50
2014,11,08,12,16,7.90
2014,11,08,12,17,10.30
2014,11,08,12,18,12.60
2014,11,08,12,19,6.00
2014,11,08,12,20,14.80
2014,11,08,12,21,10.00
2014,11,08,12,22,8.90
2014,11,08,12,23,8.60
2014,11,08,12,24,7.10
2014,11,08,12,25,7.80
2014,11,08,12,26,11.30
2014,11,08,12,27,10.60
2014,11,08,12,28,8.30
2014,11,08,12,29,7.50
2014,11,08,12,30,8.60
2014,11,08,12,31,4.90
2014,11,08,12,32,1.10
2014,11,08,12,33,1.30
2014,11,08,12,34,2.40
2014,11,08,12,35,6.70
2014,11,08,12,36,6.80
2014,11,08,12,37,6.90
2014,11,08,12,38,3.50
2014,11,08,12,39,2.60
2014,11,08,12,40,3.80
2014,11,08,12,41,4.60
2014,11,08,12,42,2.60
2014,11,08,12,43,2.50
2014,11,08,12,44,1.50
2014,11,08,12,45,3.70
2014,11,08,12,46,10.20
2014,11,08,12,47,4.40
2014,11,08,12,48,3.70
2014,11,08,12,49,4.30
2014,11,08,12,50,4.40
2014,11,08,12,51,5.00
2014,11,08,12,52,4.50
2014,11,08,12,53,2.90
2014,11,08,12,54,2.60
2014,11,08,12,55,4.60
2014,11,08,12,56,4.90
2014,11,08,12,57,3.90
2014,11,08,12,58,2.30
2014,11,08,12,59,8.90
2014,11,08,13,00,6.00
2014,11,08,13,01,4.00
2014,11,08,13,02,3.90
2014,11,08,13,03,7.70
2014,11,08,13,04,2.40
2014,11,08,13,05,7.10
2014,11,08,13,06,11.90
2014,11,08,13,07,5.80
2014,11,08,13,08,2.10
2014,11,08,13,09,7.00
2014,11,08,13,10,3.90
2014,11,08,13,11,2.20
2014,11,08,13,12,1.40
2014,11,08,13,13,7.90
2014,11,08,13,14,9.10
2014,11,08,13,15,3.70
2014,11,08,13,16,4.20
2014,11,08,13,17,2.80
2014,11,08,13,18,2.60
2014,11,08,13,19,4.30
2014,11,08,13,20,4.40
2014,11,08,13,21,7.30
2014,11,08,13,22,7.80
2014,11,08,13,23,8.30
2014,11,08,13,24,9.30
2014,11,08,13,25,6.40
2014,11,08,13,26,3.60
2014,11,08,13,27,5.20
2014,11,08,13,28,7.80
2014,11,08,13,29,6.70
2014,11,08,13,30,11.60
2014,11,08,13,31,8.00
2014,11,08,13,32,4.80
2014,11,08,13,33,2.90
2014,11,08,13,34,3.30
2014,11,08,13,35,5.30
2014,11,08,13,36,2.60
2014,11,08,13,37,6.40
2014,11,08,13,38,6.90
2014,11,08,13,39,8.30
2014,11,08,13,40,5.80
2014,11,08,13,41,3.90
2014,11,08,13,42,2.40
2014,11,08,13,43,7.50
2014,11,08,13,44,6.90
2014,11,08,13,45,8.60
2014,11,08,13,46,3.40
2014,11,08,13,47,5.10
2014,11,08,13,48,3.10
2014,11,08,13,49,4.20
2014,11,08,13,50,7.20
2014,11,08,13,51,10.50
2014,11,08,13,52,6.80
2014,11,08,13,53,7.50
2014,11,08,13,54,9.80
2014,11,08,13,55,6.00
2014,11,08,13,56,5.90
2014,11,08,13,57,7.40
2014,11,08,13,58,6.10
2014,11,08,13,59,4.40
2014,11,08,14,00,6.00
2014,11,08,14,01,11.20
2014,11,08,14,02,6.30
2014,11,08,14,03,2.90
2014,11,08,14,04,2.60
2014,11,08,14,05,2.80
2014,11,08,14,06,2.30
2014,11,08,14,07,4.80
2014,11,08,14,08,9.30
2014,11,08,14,09,4.90
2014,11,08,14,10,8.40
2014,11,08,14,11,4.90
2014,11,08,14,12,5.50
2014,11,08,14,13,6.30
2014,11,08,14,14,6.30
2014,11,08,14,15,3.90
2014,11,08,14,16,10.00
2014,11,08,14,17,7.30
2014,11,08,14,18,6.80
2014,11,08,14,19,8.00
2014,11,08,14,20,7.70
2014,11,08,14,21,4.40
2014,11,08,14,22,7.50
2014,11,08,14,23,10.70
2014,11,08,14,24,14.60
2014,11,08,14,25,11.80
2014,11,08,14,26,9.70
2014,11,08,14,27,4.30
2014,11,08,14,28,10.70
2014,11,08,14,29,11.00
2014,11,08,14,30,12.60
2014,11,08,14,31,12.00
2014,11,08,14,32,8.60
2014,11,08,14,33,10.30
2014,11,08,14,34,4.30
2014,11,08,14,35,4.10
2014,11,08,14,36,11.30
2014,11,08,14,37,6.50
2014,11,08,14,38,12.40
2014,11,08,14,39,6.70
2014,11,08,14,40,6.50
2014,11,08,14,41,7.00
2014,11,08,14,42,3.00
2014,11,08,14,43,3.20
2014,11,08,14,44,2.30
2014,11,08,14,45,2.90
2014,11,08,14,46,6.10
2014,11,08,14,47,4.60
2014,11,08,14,48,7.70
2014,11,08,14,49,4.20
2014,11,08,14,50,8.60
2014,11,08,14,51,10.10
2014,11,08,14,52,4.90
2014,11,08,14,53,3.30
2014,11,08,14,54,5.50
2014,11,08,14,55,6.90
2014,11,08,14,56,3.90
2014,11,08,14,57,2.60
2014,11,08,14,58,5.60
2014,11,08,14,59,8.10
2014,11,08,15,00,6.50
2014,11,08,15,01,4.90
2014,11,08,15,02,4.50
2014,11,08,15,03,3.00
2014,11,08,15,04,2.10
2014,11,08,15,05,4.60
2014,11,08,15,06,2.30
2014,11,08,15,07,2.90
2014,11,08,15,08,6.60
2014,11,08,15,09,14.00
2014,11,08,15,10,6.60
2014,11,08,15,11,9.10
2014,11,08,15,12,10.30
2014,11,08,15,13,8.00
2014,11,08,15,14,6.40
2014,11,08,15,15,4.20
2014,11,08,15,16,7.00
2014,11,08,15,17,5.10
2014,11,08,15,18,6.50
2014,11,08,15,19,10.80
2014,11,08,15,20,9.50
2014,11,08,15,21,7.30
2014,11,08,15,22,7.00
2014,11,08,15,23,5.70
2014,11,08,15,24,6.00
2014,11,08,15,25,7.30
2014,11,08,15,26,9.70
2014,11,08,15,27,10.20
2014,11,08,15,28,9.40
2014,11,08,15,29,4.00
2014,11,08,15,30,8.90
2014,11,08,15,31,6.70
2014,11,08,15,32,9.10
2014,11,08,15,33,6.50
2014,11,08,15,34,5.30
2014,11,08,15,35,8.20
2014,11,08,15,36,10.10
2014,11,08,15,37,3.80
2014,11,08,15,38,5.50
2014,11,08,15,39,8.30
2014,11,08,15,40,5.80
2014,11,08,15,41,3.80
2014,11,08,15,42,6.80
2014,11,08,15,43,9.80
2014,11,08,15,44,12.50
2014,11,08,15,45,12.40
2014,11,08,15,46,7.90
2014,11,08,15,47,4.70
2014,11,08,15,48,6.30
2014,11,08,15,49,10.20
2014,11,08,15,50,11.50
2014,11,08,15,51,10.40
2014,11,08,15,52,9.80
2014,11,08,15,53,5.90
2014,11,08,15,54,4.70
2014,11,08,15,55,3.30
2014,11,08,15,56,5.70
2014,11,08,15,57,7.60
2014,11,08,15,58,10.10
2014,11,08,15,59,8.20
2014,11,08,16,00,13.10
2014,11,08,16,01,10.90
2014,11,08,16,02,7.00
2014,11,08,16,03,8.20
2014,11,08,16,04,8.90
2014,11,08,16,05,7.00
2014,11,08,16,06,9.30
2014,11,08,16,07,11.90
2014,11,08,16,08,10.00
2014,11,08,16,09,7.60
2014,11,08,16,10,6.60
2014,11,08,16,11,4.70
2014,11,08,16,12,10.20
2014,11,08,16,13,9.00
2014,11,08,16,14,7.30
2014,11,08,16,15,4.10
2014,11,08,16,16,5.20
2014,11,08,16,17,8.60
2014,11,08,16,18,8.50
2014,11,08,16,19,9.40
2014,11,08,16,20,9.20
2014,11,08,16,21,10.50
2014,11,08,16,22,5.80
2014,11,08,16,23,7.80
2014,11,08,16,24,7.60
2014,11,08,16,25,8.20
2014,11,08,16,26,8.40
2014,11,08,16,27,9.60
2014,11,08,16,28,8.50
2014,11,08,16,29,6.30
2014,11,08,16,30,10.10
2014,11,08,16,31,10.60
2014,11,08,16,32,2.80
2014,11,08,16,33,3.60
2014,11,08,16,34,8.00
2014,11,08,16,35,7.50
2014,11,08,16,36,2.90
2014,11,08,16,37,2.80
2014,11,08,16,38,4.50
2014,11,08,16,39,6.30
2014,11,08,16,40,1.10
2014,11,08,16,41,1.20
2014,11,08,16,42,3.00
2014,11,08,16,43,3.60
2014,11,08,16,44,5.40
2014,11,08,16,45,7.30
2014,11,08,16,46,3.90
2014,11,08,16,47,3.90
2014,11,08,16,48,9.40
2014,11,08,16,49,10.60
2014,11,08,16,50,6.70
2014,11,08,16,51,10.20
2014,11,08,16,52,8.20
2014,11,08,16,53,4.80
2014,11,08,16,54,5.70
2014,11,08,16,55,7.90
2014,11,08,16,56,6.40
2014,11,08,16,57,3.60
2014,11,08,16,58,4.80
2014,11,08,16,59,2.40
2014,11,08,17,00,3.30
2014,11,08,17,01,8.80
2014,11,08,17,02,4.20
2014,11,08,17,03,4.70
2014,11,08,17,04,3.60
2014,11,08,17,05,5.20
2014,11,08,17,06,6.40
2014,11,08,17,07,8.40
2014,11,08,17,08,7.00
2014,11,08,17,09,8.80
2014,11,08,17,10,13.80
2014,11,08,17,11,11.60
2014,11,08,17,12,11.70
2014,11,08,17,13,7.90
2014,11,08,17,14,12.30
2014,11,08,17,15,12.30
2014,11,08,17,16,8.60
2014,11,08,17,17,9.70
2014,11,08,17,18,11.20
2014,11,08,17,19,6.60
2014,11,08,17,20,8.70
2014,11,08,17,21,9.20
2014,11,08,17,22,11.60
2014,11,08,17,23,10.60
2014,11,08,17,24,4.40
2014,11,08,17,25,2.70
2014,11,08,17,26,11.00
2014,11,08,17,27,10.50
2014,11,08,17,28,6.60
2014,11,08,17,29,4.90
2014,11,08,17,30,8.20
2014,11,08,17,31,5.90
2014,11,08,17,32,6.30
2014,11,08,17,33,4.50
2014,11,08,17,34,8.60
2014,11,08,17,35,6.90
2014,11,08,17,36,7.40
2014,11,08,17,37,6.00
2014,11,08,17,38,14.70
2014,11,08,17,39,7.40
2014,11,08,17,40,1.90
2014,11,08,17,41,3.80
2014,11,08,17,42,10.90
2014,11,08,17,43,8.60
2014,11,08,17,44,5.50
2014,11,08,17,45,4.00
2014,11,08,17,46,4.50
2014,11,08,17,47,3.90
2014,11,08,17,48,1.40
2014,11,08,17,49,2.30
2014,11,08,17,50,5.40
2014,11,08,17,51,7.90
2014,11,08,17,52,8.80
2014,11,08,17,53,8.20
2014,11,08,17,54,12.60
2014,11,08,17,55,12.60
2014,11,08,17,56,8.00
2014,11,08,17,57,12.00
2014,11,08,17,58,7.70
2014,11,08,17,59,7.30
2014,11,08,18,00,11.60
2014,11,08,18,01,15.70
2014,11,08,18,02,9.30
2014,11,08,18,03,12.50